Simultaneous Nadir Overpasses (SNOs) Predictions

Prediction of SNOs between AQUA and NOAA-19 Satellite Orbit:

Table of predicted SNOs for the next 14.0 days since TLE Epoch: 11/28/2015
Index Date (AQUA) Time (AQUA) Lat,Lon (AQUA) SZA (AQUA ) Date (NOAA-19) Time (NOAA-19) Lat,Lon (NOAA-19) SZA (NOAA-19 ) Distance(km) Time Diff (sec)
1 11/28/2015 10:36:41 80.59, -15.29 103.27 11/28/2015 10:36:01 80.59, -15.23 103.28 1.21 40
2 11/28/2015 11:26:06 -80.55, 152.77 76.80 11/28/2015 11:27:02 -80.55, 152.65 76.80 2.28 56
3 11/30/2015 16:10:26 -80.59, 81.25 76.34 11/30/2015 16:10:17 -80.59, 81.10 76.32 2.63 9
4 12/02/2015 20:54:53 -80.84, 7.29 75.52 12/02/2015 20:53:39 -80.74, 7.04 75.54 11.05 74
5 12/02/2015 21:44:10 80.56, 178.12 103.98 12/02/2015 21:44:26 80.56, 178.25 103.96 2.41 16
6 12/05/2015 02:28:30 80.62, 106.39 104.41 12/05/2015 02:27:41 80.62, 106.40 104.42 0.64 49
7 12/05/2015 03:17:55 -80.57, -85.47 75.68 12/05/2015 03:18:43 -80.57, -85.48 75.69 0.48 48
8 12/07/2015 08:02:14 -80.61,-156.93 75.33 12/07/2015 08:01:57 -80.60,-156.85 75.33 1.71 17
9 12/07/2015 08:51:39 80.57, 11.18 104.61 12/07/2015 08:52:52 80.56, 11.21 104.57 0.86 73
10 12/09/2015 13:35:57 80.58, -60.07 104.89 12/09/2015 13:36:05 80.59, -60.02 104.88 0.96 8
11 12/11/2015 18:20:16 80.64,-131.73 105.20 12/11/2015 18:19:19 80.63,-131.64 105.21 1.92 57




NCC Satellite Simultaneous Nadir Overpasses (SNOs) Prediction Service
